• In Deutschland
  • Länderverzeichnis
  • Für 7 Tage
  • Wassertemperatur
  • Satellitenkarten
  • Wetterkarte
  • Widgets
  • user-avatar
    Anmelden

    Stündliche Wetter Durres

    Heute, 27 Juni, Dienstag

    Zeit Temperatur Niederschläge Wind Luftdruck Luftfeuchtigkeit
    00:00 +23°C° 0 mm 1 m/S 758 mmHg 90%
    01:00 +22°C° 0 mm 1 m/S 758 mmHg 90%
    02:00 +22°C° 0 mm 1 m/S 758 mmHg 89%
    03:00 +22°C° 0 mm 1 m/S 758 mmHg 89%
    04:00 +22°C° 0 mm 1 m/S 758 mmHg 89%
    05:00 +24°C° 0 mm 1 m/S 758 mmHg 78%
    06:00 +27°C° 0 mm 1 m/S 758 mmHg 68%
    07:00 +28°C° 0 mm 0 m/S 758 mmHg 58%
    08:00 +31°C° 0 mm 1 m/S 758 mmHg 52%
    09:00 +33°C° 0 mm 1 m/S 758 mmHg 46%
    10:00 +34°C° 0 mm 1 m/S 758 mmHg 40%
    11:00 +36°C° 0 mm 2 m/S 758 mmHg 37%
    12:00 +36°C° 0 mm 2 m/S 758 mmHg 35%
    13:00 +37°C° 0 mm 3 m/S 757 mmHg 33%
    14:00 +36°C° 0 mm 3 m/S 757 mmHg 34%
    15:00 +36°C° 0 mm 2 m/S 757 mmHg 35%
    16:00 +35°C° 0 mm 2 m/S 756 mmHg 37%
    17:00 +31°C° 0 mm 2 m/S 756 mmHg 46%
    18:00 +29°C° 0 mm 2 m/S 756 mmHg 56%
    19:00 +26°C° 0 mm 2 m/S 756 mmHg 66%
    20:00 +25°C° 0 mm 3 m/S 757 mmHg 66%
    21:00 +24°C° 0 mm 3 m/S 757 mmHg 67%
    22:00 +22°C° 0 mm 4 m/S 757 mmHg 68%
    23:00 +22°C° 0 mm 4 m/S 757 mmHg 66%

    Morgen, 28 Juni, Mittwoch

    Zeit Temperatur Niederschläge Wind Luftdruck Luftfeuchtigkeit
    00:00 +22°C° 0 mm 4 m/S 757 mmHg 64%
    01:00 +22°C° 0 mm 5 m/S 757 mmHg 63%
    02:00 +22°C° 0 mm 5 m/S 757 mmHg 60%
    03:00 +23°C° 0 mm 5 m/S 756 mmHg 57%
    04:00 +23°C° 0 mm 5 m/S 756 mmHg 54%
    05:00 +26°C° 0 mm 4 m/S 756 mmHg 50%
    06:00 +28°C° 0 mm 4 m/S 756 mmHg 46%
    07:00 +32°C° 0 mm 4 m/S 757 mmHg 42%
    08:00 +33°C° 0 mm 4 m/S 757 mmHg 38%
    09:00 +35°C° 0 mm 5 m/S 757 mmHg 34%
    10:00 +36°C° 0 mm 5 m/S 757 mmHg 30%
    11:00 +36°C° 0 mm 5 m/S 756 mmHg 31%
    12:00 +38°C° 0 mm 6 m/S 756 mmHg 31%
    13:00 +38°C° 0 mm 6 m/S 756 mmHg 31%
    14:00 +36°C° 0 mm 5 m/S 756 mmHg 33%
    15:00 +36°C° 0 mm 5 m/S 756 mmHg 35%
    16:00 +35°C° 0 mm 4 m/S 756 mmHg 37%
    17:00 +33°C° 0 mm 4 m/S 756 mmHg 46%
    18:00 +30°C° 0 mm 4 m/S 756 mmHg 55%
    19:00 +27°C° 0 mm 4 m/S 756 mmHg 64%
    20:00 +27°C° 0 mm 4 m/S 756 mmHg 63%
    21:00 +26°C° 0 mm 4 m/S 757 mmHg 63%
    22:00 +25°C° 0 mm 4 m/S 757 mmHg 62%
    23:00 +26°C° 0 mm 5 m/S 757 mmHg 60%

    übermorgen, 29 Juni, Donnerstag

    Zeit Temperatur Niederschläge Wind Luftdruck Luftfeuchtigkeit
    00:00 +26°C° 0 mm 5 m/S 756 mmHg 57%
    01:00 +26°C° 0 mm 5 m/S 756 mmHg 55%
    02:00 +26°C° 0 mm 6 m/S 756 mmHg 53%
    03:00 +26°C° 0 mm 6 m/S 756 mmHg 52%
    04:00 +26°C° 0 mm 6 m/S 756 mmHg 51%
    05:00 +28°C° 0 mm 6 m/S 756 mmHg 47%
    06:00 +30°C° 0 mm 6 m/S 756 mmHg 43%
    07:00 +33°C° 0 mm 6 m/S 756 mmHg 39%
    08:00 +35°C° 0 mm 7 m/S 756 mmHg 34%
    09:00 +38°C° 0 mm 8 m/S 756 mmHg 29%
    10:00 +40°C° 0 mm 9 m/S 756 mmHg 24%
    11:00 +42°C° 0 mm 10 m/S 756 mmHg 24%
    12:00 +42°C° 0 mm 10 m/S 756 mmHg 25%
    13:00 +42°C° 0 mm 10 m/S 756 mmHg 25%
    14:00 +40°C° 0 mm 10 m/S 756 mmHg 27%
    15:00 +39°C° 0 mm 9 m/S 756 mmHg 29%
    16:00 +39°C° 0 mm 9 m/S 756 mmHg 31%
    17:00 +35°C° 0 mm 8 m/S 756 mmHg 40%
    18:00 +32°C° 0 mm 7 m/S 756 mmHg 49%
    19:00 +28°C° 0 mm 7 m/S 756 mmHg 58%
    20:00 +27°C° 0 mm 6 m/S 757 mmHg 59%
    21:00 +26°C° 0 mm 6 m/S 757 mmHg 60%
    22:00 +26°C° 0 mm 6 m/S 758 mmHg 61%
    23:00 +25°C° 0 mm 5 m/S 758 mmHg 60%

    30 Juni, Freitag

    Zeit Temperatur Niederschläge Wind Luftdruck Luftfeuchtigkeit
    00:00 +25°C° 0 mm 5 m/S 758 mmHg 59%
    01:00 +25°C° 0 mm 4 m/S 758 mmHg 58%
    02:00 +25°C° 0 mm 4 m/S 758 mmHg 58%
    03:00 +24°C° 0 mm 3 m/S 758 mmHg 59%
    04:00 +24°C° 0 mm 2 m/S 759 mmHg 60%
    05:00 +26°C° 0 mm 2 m/S 759 mmHg 53%
    06:00 +29°C° 0 mm 2 m/S 759 mmHg 47%
    07:00 +32°C° 0 mm 2 m/S 760 mmHg 40%
    08:00 +35°C° 0 mm 2 m/S 760 mmHg 35%
    09:00 +37°C° 0 mm 2 m/S 760 mmHg 30%
    10:00 +39°C° 0 mm 2 m/S 760 mmHg 26%
    11:00 +39°C° 0 mm 2 m/S 760 mmHg 24%
    12:00 +40°C° 0 mm 2 m/S 759 mmHg 23%
    13:00 +40°C° 0 mm 2 m/S 759 mmHg 22%
    14:00 +40°C° 0 mm 3 m/S 759 mmHg 24%
    15:00 +39°C° 0 mm 3 m/S 759 mmHg 25%
    16:00 +39°C° 0 mm 3 m/S 759 mmHg 27%
    17:00 +36°C° 0 mm 3 m/S 759 mmHg 36%
    18:00 +33°C° 0 mm 3 m/S 759 mmHg 45%
    19:00 +29°C° 0 mm 2 m/S 759 mmHg 54%
    20:00 +29°C° 0 mm 2 m/S 759 mmHg 50%
    21:00 +29°C° 0 mm 3 m/S 759 mmHg 46%
    22:00 +29°C° 0 mm 3 m/S 759 mmHg 41%
    23:00 +29°C° 0 mm 3 m/S 759 mmHg 40%

    1 Juli, Samstag

    Zeit Temperatur Niederschläge Wind Luftdruck Luftfeuchtigkeit
    00:00 +29°C° 0 mm 2 m/S 758 mmHg 39%
    01:00 +29°C° 0 mm 2 m/S 758 mmHg 37%
    02:00 +29°C° 0 mm 2 m/S 758 mmHg 38%
    03:00 +28°C° 0 mm 2 m/S 758 mmHg 38%
    04:00 +28°C° 0 mm 2 m/S 757 mmHg 38%
    05:00 +30°C° 0 mm 2 m/S 757 mmHg 37%
    06:00 +32°C° 0 mm 2 m/S 757 mmHg 35%
    07:00 +35°C° 0 mm 3 m/S 757 mmHg 33%
    08:00 +38°C° 0 mm 2 m/S 757 mmHg 28%
    09:00 +40°C° 0 mm 2 m/S 757 mmHg 24%
    10:00 +43°C° 0 mm 2 m/S 757 mmHg 19%
    11:00 +44°C° 0 mm 3 m/S 757 mmHg 18%
    12:00 +44°C° 0 mm 4 m/S 756 mmHg 18%
    13:00 +44°C° 0 mm 4 m/S 756 mmHg 17%
    14:00 +43°C° 0 mm 4 m/S 756 mmHg 18%
    15:00 +42°C° 0 mm 4 m/S 756 mmHg 19%
    16:00 +42°C° 0 mm 3 m/S 755 mmHg 20%
    17:00 +37°C° 0 mm 3 m/S 756 mmHg 30%
    18:00 +34°C° 0 mm 2 m/S 756 mmHg 40%
    19:00 +29°C° 0 mm 2 m/S 756 mmHg 50%
    20:00 +28°C° 0 mm 2 m/S 756 mmHg 52%
    21:00 +27°C° 0 mm 2 m/S 756 mmHg 54%
    22:00 +26°C° 0 mm 2 m/S 756 mmHg 55%
    23:00 +26°C° 0 mm 2 m/S 756 mmHg 51%

    2 Juli, Sonntag

    Zeit Temperatur Niederschläge Wind Luftdruck Luftfeuchtigkeit
    00:00 +26°C° 0 mm 2 m/S 755 mmHg 46%
    01:00 +26°C° 0 mm 3 m/S 755 mmHg 41%
    02:00 +26°C° 0 mm 4 m/S 755 mmHg 45%
    03:00 +25°C° 0 mm 5 m/S 755 mmHg 49%
    04:00 +23°C° 0 mm 6 m/S 755 mmHg 54%
    05:00 +26°C° 0 mm 6 m/S 755 mmHg 50%
    06:00 +29°C° 0 mm 6 m/S 755 mmHg 47%
    07:00 +33°C° 0 mm 6 m/S 755 mmHg 43%
    08:00 +34°C° 0 mm 6 m/S 755 mmHg 41%
    09:00 +35°C° 0 mm 7 m/S 755 mmHg 39%
    10:00 +35°C° 0 mm 8 m/S 755 mmHg 38%
    11:00 +34°C° 0,1 mm 7 m/S 755 mmHg 44%
    12:00 +33°C° 0,1 mm 6 m/S 755 mmHg 50%
    13:00 +32°C° 0,1 mm 6 m/S 755 mmHg 56%
    14:00 +32°C° 0 mm 6 m/S 754 mmHg 54%
    15:00 +33°C° 0 mm 7 m/S 754 mmHg 52%
    16:00 +33°C° 0 mm 7 m/S 754 mmHg 50%
    17:00 +30°C° 0,3 mm 7 m/S 755 mmHg 59%
    18:00 +28°C° 0,3 mm 6 m/S 755 mmHg 69%
    19:00 +26°C° 0,3 mm 6 m/S 755 mmHg 78%
    20:00 +25°C° 0,4 mm 5 m/S 755 mmHg 81%
    21:00 +23°C° 0,4 mm 5 m/S 756 mmHg 85%
    22:00 +22°C° 0,4 mm 4 m/S 756 mmHg 89%
    23:00 +21°C° 0,3 mm 5 m/S 756 mmHg 89%
    Mehr zeigen